Change the Weather History Date:

Sunday, October 5, 2014

  Actual Average Record
Temperature  
Mean Temperature 40 °F -  
Max Temperature 49 °F 65 °F 87 °F (1963)
Min Temperature 31 °F 40 °F 28 °F (1988)
Degree Days  
Heating Degree Days 25    
Moisture  
Dew Point 35 °F    
Average Humidity 78    
Maximum Humidity 98    
Minimum Humidity 56    
Precipitation  
Precipitation 0.00 in - - ()
Sea Level Pressure  
Sea Level Pressure 29.63 in    
Wind  
Wind Speed 6 mph (West)    
Max Wind Speed 16 mph    
Max Gust Speed 23 mph    
Visibility 10 miles    
Events      
Averages and records for this station are not official NWS values.
T = Trace of Precipitation, MM = Missing Value Source: NWS Daily Summary

Daily Weather History Graph

Daily Weather History Graph

Search for Another Location

Airport or City:

Trip Planner

Search our weather history database for the weather conditions in past years. The results will help you decide how hot, cold, wet, or windy it might be!

Date:

Astronomy

Oct. 05, 2014 Rise Set
Actual Time 7:20 AM CDT 6:50 PM CDT
Civil Twilight 6:51 AM CDT 7:19 PM CDT
Nautical Twilight 6:17 AM CDT 7:53 PM CDT
Astronomical Twilight 5:43 AM CDT 8:27 PM CDT
Moon 5:15 PM CDT (10/5) 3:50 AM CDT (10/5)
Length of Visible Light 12h 28m
Length of Day
11h 30m
Waxing Gibbous, 89% of the Moon is Illuminated
Oct 5
Waxing Gibbous
Oct 8
Full
Oct 15
Last Quarter
Oct 23
New
Oct 30
First Quarter

Hourly Weather History & Observations

Time (CDT) Temp. Windchill Dew Point Humidity Pressure Visibility Wind Dir Wind Speed Gust Speed Precip Events Conditions
12:13 AM 34.2 °F 30.0 °F 31.5 °F 90% 29.71 in 10.0 mi WSW 4.6 mph - N/A   Clear
12:33 AM 34.3 °F 30.2 °F 31.1 °F 88% 29.71 in 10.0 mi WSW 4.6 mph - N/A   Clear
12:53 AM 33.6 °F 29.4 °F 31.1 °F 90% 29.71 in 10.0 mi WSW 4.6 mph - N/A   Clear
1:13 AM 33.8 °F 29.6 °F 31.1 °F 90% 29.70 in 10.0 mi WSW 4.6 mph - N/A   Clear
1:32 AM 33.8 °F 29.6 °F 30.7 °F 89% 29.70 in 10.0 mi WSW 4.6 mph - N/A   Clear
1:52 AM 34.0 °F 29.8 °F 30.6 °F 87% 29.69 in 10.0 mi WSW 4.6 mph - N/A   Clear
2:13 AM 33.3 °F 30.2 °F 30.6 °F 90% 29.69 in 10.0 mi WSW 3.5 mph - N/A   Clear
2:32 AM 33.1 °F - 30.0 °F 89% 29.69 in 10.0 mi Calm Calm - N/A   Clear
2:52 AM 31.8 °F - 29.7 °F 92% 29.68 in 10.0 mi Calm Calm - N/A   Clear
3:13 AM 31.8 °F - 30.0 °F 93% 29.68 in 10.0 mi Calm Calm - N/A   Scattered Clouds
3:32 AM 31.6 °F - 29.7 °F 92% 29.67 in 10.0 mi Calm Calm - N/A   Scattered Clouds
3:53 AM 31.8 °F - 30.4 °F 94% 29.67 in 10.0 mi Calm Calm - N/A   Mostly Cloudy
4:12 AM 33.8 °F 29.6 °F 31.1 °F 90% 29.67 in 10.0 mi SW 4.6 mph - N/A   Overcast
4:33 AM 34.2 °F 30.0 °F 31.5 °F 90% 29.66 in 10.0 mi SW 4.6 mph - N/A   Overcast
4:53 AM 34.7 °F 29.6 °F 31.8 °F 89% 29.67 in 10.0 mi WSW 5.8 mph - N/A   Mostly Cloudy
5:12 AM 34.2 °F 30.0 °F 32.0 °F 92% 29.66 in 10.0 mi WSW 4.6 mph - N/A   Mostly Cloudy
5:33 AM 34.7 °F 31.8 °F 32.0 °F 90% 29.66 in 10.0 mi WSW 3.5 mph - N/A   Mostly Cloudy
5:52 AM 34.9 °F 30.8 °F 32.4 °F 91% 29.66 in 10.0 mi WSW 4.6 mph - N/A   Mostly Cloudy
6:12 AM 35.6 °F 30.7 °F 32.4 °F 88% 29.66 in 10.0 mi West 5.8 mph - N/A   Overcast
6:33 AM 35.8 °F 31.9 °F 32.4 °F 87% 29.66 in 10.0 mi West 4.6 mph - N/A   Overcast
6:52 AM 35.6 °F 31.7 °F 32.5 °F 89% 29.66 in 10.0 mi WSW 4.6 mph - N/A   Overcast
7:12 AM 35.6 °F 31.7 °F 32.9 °F 90% 29.66 in 10.0 mi West 4.6 mph - N/A   Overcast
7:33 AM 36.0 °F 32.1 °F 33.3 °F 90% 29.65 in 10.0 mi WSW 4.6 mph - N/A   Overcast
7:53 AM 36.7 °F 32.0 °F 33.8 °F 89% 29.65 in 10.0 mi WSW 5.8 mph - N/A   Overcast
8:13 AM 37.4 °F 32.8 °F 34.2 °F 88% 29.65 in 10.0 mi WSW 5.8 mph - N/A   Overcast
8:32 AM 38.3 °F 33.9 °F 34.7 °F 87% 29.65 in 10.0 mi West 5.8 mph - N/A   Overcast
8:52 AM 38.8 °F 33.8 °F 35.1 °F 86% 29.65 in 10.0 mi West 6.9 mph - N/A   Overcast
9:13 AM 40.1 °F 34.7 °F 36.0 °F 85% 29.65 in 10.0 mi West 8.1 mph - N/A   Overcast
9:32 AM 41.2 °F 35.5 °F 36.5 °F 83% 29.65 in 10.0 mi West 9.2 mph - N/A   Overcast
9:53 AM 42.4 °F 37.0 °F 36.9 °F 81% 29.65 in 10.0 mi WNW 9.2 mph - N/A   Overcast
10:13 AM 43.7 °F 38.6 °F 36.9 °F 77% 29.64 in 10.0 mi West 9.2 mph - N/A   Overcast
10:32 AM 45.5 °F 39.6 °F 37.2 °F 73% 29.64 in 10.0 mi West 12.7 mph - N/A   Overcast
10:53 AM 45.3 °F 40.1 °F 36.5 °F 71% 29.64 in 10.0 mi WNW 10.4 mph - N/A   Overcast
11:13 AM 45.1 °F 39.9 °F 36.0 °F 70% 29.64 in 10.0 mi West 10.4 mph - N/A   Overcast
11:52 AM 46.4 °F 41.5 °F 36.5 °F 68% 29.62 in 10.0 mi West 10.4 mph 17.3 mph N/A   Overcast
12:12 PM 47.7 °F - 35.6 °F 63% 29.62 in 10.0 mi West 13.8 mph 17.3 mph N/A   Overcast
12:32 PM 48.6 °F - 35.4 °F 60% 29.62 in 10.0 mi WSW 13.8 mph 21.9 mph N/A   Overcast
12:52 PM 48.4 °F - 35.1 °F 60% 29.62 in 10.0 mi West 16.1 mph 19.6 mph N/A   Overcast
1:12 PM 48.4 °F - 34.0 °F 58% 29.61 in 10.0 mi West 11.5 mph - N/A   Overcast
1:33 PM 48.9 °F - 34.0 °F 56% 29.60 in 10.0 mi West 16.1 mph 23.0 mph N/A   Overcast
1:53 PM 49.3 °F - 34.0 °F 56% 29.60 in 10.0 mi West 11.5 mph 18.4 mph N/A   Overcast
2:12 PM 48.7 °F - 34.0 °F 57% 29.60 in 10.0 mi West 11.5 mph 19.6 mph N/A   Overcast
2:33 PM 48.7 °F - 34.7 °F 58% 29.59 in 10.0 mi West 13.8 mph 21.9 mph N/A   Overcast
2:52 PM 48.6 °F - 34.0 °F 57% 29.59 in 10.0 mi West 12.7 mph - N/A   Overcast
3:12 PM 48.7 °F - 34.0 °F 57% 29.59 in 10.0 mi West 11.5 mph - N/A   Overcast
3:33 PM 49.1 °F - 34.3 °F 57% 29.59 in 10.0 mi West 12.7 mph - N/A   Overcast
3:52 PM 49.3 °F - 35.1 °F 58% 29.59 in 10.0 mi West 15.0 mph - N/A   Overcast
4:13 PM 49.6 °F - 35.4 °F 58% 29.59 in 10.0 mi West 15.0 mph - N/A   Overcast
4:32 PM 49.6 °F - 35.6 °F 59% 29.59 in 10.0 mi West 13.8 mph 19.6 mph N/A   Overcast
4:52 PM 49.5 °F - 35.8 °F 59% 29.58 in 10.0 mi West 11.5 mph - N/A   Overcast
5:13 PM 49.3 °F - 35.8 °F 60% 29.58 in 10.0 mi West 9.2 mph 17.3 mph N/A   Overcast
5:32 PM 49.1 °F - 36.3 °F 61% 29.58 in 10.0 mi West 10.4 mph - N/A   Overcast
5:52 PM 49.1 °F - 36.5 °F 62% 29.58 in 10.0 mi West 8.1 mph - N/A   Overcast
6:12 PM 48.7 °F - 36.5 °F 63% 29.58 in 10.0 mi West 8.1 mph - N/A   Overcast
6:32 PM 48.2 °F - 36.9 °F 65% 29.58 in 10.0 mi West 6.9 mph - N/A   Overcast
6:53 PM 48.2 °F - 36.9 °F 65% 29.58 in 10.0 mi West 5.8 mph - N/A   Overcast
7:12 PM 48.6 °F - 36.9 °F 64% 29.58 in 10.0 mi West 11.5 mph 19.6 mph N/A   Overcast
7:33 PM 47.7 °F - 37.4 °F 68% 29.58 in 10.0 mi West 10.4 mph - N/A   Overcast
7:53 PM 47.8 °F - 37.4 °F 67% 29.58 in 10.0 mi West 10.4 mph 19.6 mph N/A   Overcast
8:12 PM 47.3 °F - 38.1 °F 70% 29.58 in 10.0 mi West 10.4 mph - N/A   Overcast
8:32 PM 45.7 °F 42.7 °F 38.5 °F 76% 29.58 in 10.0 mi West 5.8 mph - N/A   Overcast
8:52 PM 43.0 °F 40.3 °F 38.3 °F 84% 29.58 in 10.0 mi WSW 4.6 mph - N/A   Mostly Cloudy
9:13 PM 41.9 °F 38.2 °F 38.5 °F 88% 29.58 in 10.0 mi WSW 5.8 mph - N/A   Scattered Clouds
9:32 PM 41.9 °F 36.3 °F 39.2 °F 90% 29.58 in 10.0 mi West 9.2 mph - N/A   Clear
9:53 PM 41.9 °F 36.9 °F 39.6 °F 91% 29.58 in 10.0 mi West 8.1 mph - N/A   Clear
10:12 PM 41.2 °F 36.0 °F 39.4 °F 93% 29.58 in 10.0 mi West 8.1 mph - N/A   Clear
10:33 PM 41.2 °F 38.2 °F 39.4 °F 93% 29.58 in 10.0 mi West 4.6 mph - N/A   Mostly Cloudy
10:53 PM 40.1 °F 36.9 °F 38.7 °F 95% 29.58 in 10.0 mi WSW 4.6 mph - N/A   Scattered Clouds
11:12 PM 38.7 °F 34.3 °F 37.8 °F 97% 29.58 in 10.0 mi WSW 5.8 mph - N/A   Clear
11:32 PM 38.8 °F 34.6 °F 38.3 °F 98% 29.58 in 10.0 mi WSW 5.8 mph - N/A   Clear
11:53 PM 38.8 °F 34.6 °F 38.3 °F 98% 29.58 in 10.0 mi WSW 5.8 mph - N/A   Clear